This is the latest recevied weather packets stored in our database for station/object KO4MMQ-10. If no packets are shown the sender has not sent any weather packets the latest 10 day(s).
| Time | Temp. | Humidity | Pressure | Rain* | Wind** | Luminosity | Snow |
|---|---|---|---|---|---|---|---|
| 1777853908 | 20.56° C | 41% | 1015.2 hPa | 0 mm | - | - | - |
| 1777851508 | 22.78° C | 35% | 1015.3 hPa | 0 mm | - | - | - |
| 1777850908 | 24.44° C | 32% | 1015.5 hPa | 0 mm | - | - | - |
| 1777849108 | 24.44° C | 30% | 1015.6 hPa | 0 mm | - | - | - |
| 1777848508 | 23.89° C | 30% | 1015.8 hPa | 0 mm | - | - | - |
| 1777843708 | 24.44° C | 31% | 1016.6 hPa | 0 mm | - | - | - |
| 1777839508 | 23.33° C | 32% | 1017.7 hPa | 0 mm | - | - | - |
| 1777838308 | 23.33° C | 36% | 1018.1 hPa | 0 mm | - | - | - |
| 1777837708 | 23.33° C | 36% | 1018.3 hPa | 0 mm | - | - | - |
| 1777836508 | 22.78° C | 33% | 1018.7 hPa | 0 mm | - | - | - |
| 1777835308 | 22.78° C | 37% | 1019 hPa | 0 mm | - | - | - |
| 1777834708 | 22.22° C | 34% | 1019.1 hPa | 0 mm | - | - | - |
| 1777832908 | 21.67° C | 36% | 1019.6 hPa | 0 mm | - | - | - |
| 1777831707 | 21.67° C | 38% | 1019.9 hPa | 0 mm | - | - | - |
| 1777831108 | 21.67° C | 36% | 1020.1 hPa | 0 mm | - | - | - |
| 1777830507 | 21.67° C | 41% | 1020.1 hPa | 0 mm | - | - | - |
| 1777828709 | 20.56° C | 37% | 1020.7 hPa | 0 mm | - | - | - |
| 1777827508 | 20° C | 39% | 1021 hPa | 0 mm | - | - | - |
| 1777825108 | 19.44° C | 44% | 1021.2 hPa | 0 mm | - | - | - |
| 1777823308 | 18.33° C | 46% | 1021.8 hPa | 0 mm | - | - | - |
| 1777822708 | 17.78° C | 47% | 1021.8 hPa | 0 mm | - | - | - |
| 1777822107 | 17.22° C | 48% | 1021.9 hPa | 0 mm | - | - | - |
| 1777820308 | 15.56° C | 53% | 1021.9 hPa | 0 mm | - | - | - |
| 1777819708 | 15° C | 53% | 1022 hPa | 0 mm | - | - | - |
| 1777818508 | 13.89° C | 56% | 1021.9 hPa | 0 mm | - | - | - |
* Rain latest hour (hover to see other rain measurements)
** Current wind speed in m/s (hover to see current wind gust speed)